Location: Dreilärchen
(47.9312°N, 8.6113°E)
Time: 02:42:24
(UTC+00:00)

Cosmos 1455 - Pass Details

Date: 26 May 2022
Orbit: 492 x 515 km, 82.5° (Epoch: 26 June)

Event Time Altitude Azimuth Distance (km) Brightness Sun altitude
Rises 00:44:24 0° 359° (N) 2,587 7.0 -18.6°
Reaches altitude 10° 00:46:42 10° 10° (N) 1,698 6.0 -18.4°
Maximum altitude 00:50:02 31° 74° (ENE) 887 3.7 -18.2°
Enters shadow 00:52:38 14° 132° (SE) 1,429 4.2 -18.1°
